QPF
0.00 0.00 0.00 0.00 0.00 0.00 0.00 0.00 0.00 0.00 0.00 0.00 0.00 0.00 0.00 0.00 0.00 0.00 0.00 0.00 0.00 0.01 0.01 0.02 0.01 0.01 0.00 0.00 0.01 0.03 0.02 0.07 0.05 0.00 0.00 0.00 0.01 0.01 0.00 0.00 0.00 0.00 0.00
0.00 0.00 0.00 0.00 0.00 0.00 0.00 0.00 0.00 0.00 0.00 0.00 0.00 0.00 0.00 0.00 0.00 0.00 0.00 0.00 0.01 0.02 0.03 0.05 0.03 0.03 0.02 0.02 0.05 0.06 0.06 0.07 0.05 0.02 0.01 0.01 0.04 0.04 0.01 0.00 0.00 0.00 0.00
0.00 0.00 0.00 0.00 0.00 0.00 0.00 0.00 0.00 0.00 0.00 0.00 0.00 0.00 0.00 0.00 0.00 0.00 0.00 0.00 0.01 0.01 0.03 0.04 0.03 0.06 0.05 0.04 0.02 0.04 0.05 0.07 0.06 0.04 0.01 0.01 0.00 0.02 0.02 0.00 0.00 0.00 0.00
0.00 0.00 0.00 0.00 0.00 0.00 0.00 0.00 0.00 0.00 0.00 0.00 0.00 0.00 0.00 0.00 0.00 0.00 0.00 0.01 0.01 0.01 0.03 0.04 0.04 0.05 0.06 0.07 0.07 0.05 0.04 0.08 0.09 0.07 0.06 0.03 0.01 0.04 0.06 0.02 0.00 0.00 0.00
0.00 0.00 0.00 0.00 0.00 0.00 0.00 0.00 0.00 0.00 0.00 0.00 0.00 0.00 0.00 0.00 0.00 0.00 0.00 0.00 0.01 0.00 0.01 0.02 0.03 0.02 0.01 0.03 0.08 0.08 0.08 0.09 0.09 0.07 0.04 0.05 0.01 0.02 0.03 0.04 0.01 0.00 0.00
0.00 0.00 0.00 0.00 0.00 0.00 0.00 0.00 0.00 0.00 0.00 0.00 0.01 0.01 0.02 0.01 0.00 0.00 0.00 0.00 0.00 0.00 0.00 0.00 0.01 0.00 0.00 0.00 0.01 0.01 0.05 0.08 0.09 0.08 0.04 0.04 0.02 0.02 0.01 0.01 0.02 0.01 0.00
0.00 0.00 0.00 0.00 0.00 0.00 0.00 0.00 0.00 0.00 0.00 0.01 0.02 0.03 0.02 0.00 0.00 0.00 0.00 0.00 0.00 0.00 0.01 0.02 0.01 0.00 0.00 0.01 0.01 0.02 0.01 0.04 0.02 0.05 0.05 0.02 0.03 0.03 0.05 0.04 0.08 0.08 0.02
0.00 0.00 0.00 0.00 0.00 0.00 0.00 0.00 0.00 0.01 0.02 0.02 0.02 0.01 0.00 0.00 0.00 0.00 0.00 0.00 0.01 0.01 0.02 0.03 0.02 0.01 0.01 0.03 0.07 0.10 0.07 0.07 0.05 0.00 0.00 0.01 0.03 0.10 0.15 0.17 0.18 0.15 0.10
0.00 0.00 0.00 0.00 0.00 0.00 0.00 0.00 0.00 0.02 0.02 0.02 0.01 0.00 0.00 0.00 0.00 0.04 0.04 0.01 0.02 0.01 0.01 0.01 0.00 0.01 0.00 0.01 0.03 0.06 0.09 0.05 0.02 0.01 0.00 0.00 0.00 0.04 0.14 0.20 0.18 0.20 0.11
0.00 0.00 0.00 0.00 0.00 0.01 0.01 0.01 0.01 0.01 0.02 0.02 0.02 0.02 0.01 0.00 0.05 0.12 0.05 0.01 0.01 0.00 0.00 0.00 0.01 0.01 0.00 0.00 0.01 0.07 0.08 0.00 0.03 0.06 0.03 0.01 0.00 0.00 0.04 0.08 0.09 0.10 0.06
0.00 0.00 0.00 0.01 0.02 0.03 0.02 0.01 0.02 0.02 0.02 0.02 0.01 0.02 0.03 0.09 0.09 0.07 0.00 0.00 0.00 0.00 0.00 0.01 0.02 0.02 0.01 0.01 0.01 0.02 0.01 0.02 0.09 0.11 0.08 0.05 0.03 0.02 0.01 0.00 0.00 0.01 0.02
0.00 0.00 0.01 0.01 0.03 0.03 0.03 0.02 0.01 0.02 0.02 0.02 0.04 0.06 0.08 0.12 0.12 0.01 0.00 0.00 0.00 0.00 0.01 0.01 0.01 0.00 0.00 0.00 0.00 0.00 0.01 0.01 0.04 0.08 0.07 0.04 0.02 0.01 0.00 0.00 0.01 0.01 0.00
0.00 0.00 0.01 0.02 0.02 0.04 0.05 0.04 0.03 0.03 0.05 0.05 0.06 0.07 0.06 0.06 0.02 0.00 0.00 0.00 0.01 0.02 0.01 0.00 0.00 0.00 0.00 0.00 0.01 0.02 0.01 0.00 0.00 0.01 0.01 0.00 0.00 0.01 0.01 0.03 0.04 0.04 0.04
0.01 0.00 0.01 0.03 0.03 0.07 0.07 0.06 0.06 0.04 0.05 0.05 0.07 0.07 0.07 0.02 0.02 0.06 0.02 0.01 0.01 0.00 0.00 0.00 0.00 0.00 0.00 0.01 0.00 0.02 0.01 0.00 0.01 0.01 0.00 0.01 0.02 0.03 0.01 0.01 0.04 0.07 0.06
0.00 0.00 0.00 0.01 0.04 0.04 0.03 0.02 0.00 0.01 0.03 0.03 0.05 0.05 0.02 0.00 0.03 0.01 0.00 0.00 0.00 0.00 0.00 0.00 0.01 0.03 0.06 0.08 0.07 0.06 0.04 0.03 0.01 0.00 0.00 0.00 0.01 0.01 0.01 0.02 0.03 0.06 0.06
0.00 0.00 0.02 0.03 0.02 0.01 0.01 0.00 0.00 0.00 0.00 0.00 0.00 0.00 0.00 0.00 0.00 0.00 0.00 0.00 0.00 0.00 0.00 0.01 0.05 0.04 0.04 0.04 0.02 0.05 0.03 0.05 0.04 0.04 0.03 0.02 0.02 0.01 0.01 0.01 0.05 0.08 0.07
0.00 0.01 0.02 0.02 0.04 0.04 0.02 0.02 0.02 0.01 0.01 0.01 0.00 0.00 0.00 0.01 0.01 0.00 0.00 0.00 0.00 0.00 0.00 0.03 0.07 0.07 0.02 0.01 0.02 0.03 0.06 0.10 0.11 0.07 0.06 0.05 0.04 0.03 0.02 0.01 0.02 0.05 0.06
0.00 0.00 0.02 0.04 0.03 0.01 0.01 0.01 0.04 0.04 0.02 0.03 0.00 0.01 0.02 0.03 0.00 0.00 0.00 0.00 0.00 0.00 0.00 0.00 0.04 0.03 0.02 0.01 0.00 0.01 0.06 0.13 0.13 0.14 0.11 0.10 0.06 0.02 0.03 0.02 0.01 0.01 0.02
0.00 0.01 0.01 0.00 0.01 0.00 0.01 0.04 0.04 0.06 0.02 0.00 0.02 0.03 0.02 0.01 0.01 0.03 0.05 0.03 0.02 0.00 0.00 0.00 0.01 0.01 0.01 0.01 0.01 0.01 0.01 0.03 0.04 0.06 0.06 0.06 0.08 0.04 0.02 0.01 0.01 0.00 0.00
0.01 0.00 0.00 0.00 0.00 0.00 0.00 0.01 0.04 0.05 0.00 0.00 0.04 0.01 0.00 0.00 0.04 0.03 0.13 0.10 0.04 0.02 0.01 0.01 0.00 0.00 0.01 0.04 0.05 0.04 0.02 0.01 0.02 0.02 0.02 0.03 0.02 0.02 0.02 0.01 0.01 0.01 0.01
0.00 0.00 0.00 0.00 0.00 0.00 0.00 0.00 0.01 0.01 0.00 0.00 0.01 0.00 0.00 0.00 0.00 0.03 0.08 0.13 0.13 0.11 0.05 0.03 0.02 0.01 0.01 0.03 0.05 0.04 0.02 0.02 0.04 0.05 0.02 0.00 0.00 0.00 0.01 0.00 0.00 0.00 0.00
0.00 0.00 0.00 0.00 0.00 0.00 0.00 0.00 0.00 0.00 0.00 0.00 0.00 0.00 0.00 0.00 0.01 0.00 0.01 0.00 0.01 0.00 0.00 0.02 0.05 0.04 0.03 0.03 0.03 0.04 0.01 0.01 0.00 0.00 0.00 0.00 0.00 0.00 0.00 0.00 0.00 0.00 0.00
0.00 0.00 0.00 0.00 0.00 0.00 0.00 0.00 0.00 0.00 0.00 0.00 0.00 0.01 0.01 0.02 0.02 0.00 0.00 0.00 0.00 0.00 0.00 0.00 0.00 0.00 0.00 0.01 0.01 0.01 0.00 0.02 0.01 0.00 0.00 0.00 0.00 0.00 0.00 0.00 0.00 0.00 0.00
0.00 0.00 0.00 0.00 0.00 0.00 0.00 0.00 0.00 0.00 0.00 0.00 0.00 0.00 0.00 0.01 0.01 0.00 0.00 0.00 0.00 0.00 0.01 0.00 0.00 0.00 0.00 0.00 0.00 0.00 0.00 0.00 0.00 0.01 0.01 0.00 0.00 0.00 0.00 0.00 0.00 0.00 0.00
0.00 0.00 0.00 0.00 0.00 0.00 0.00 0.00 0.00 0.00 0.00 0.00 0.00 0.00 0.00 0.00 0.00 0.00 0.00 0.00 0.00 0.00 0.00 0.00 0.00 0.00 0.00 0.00 0.00 0.00 0.00 0.00 0.00 0.00 0.01 0.00 0.00 0.00 0.00 0.00 0.00 0.00 0.00
0.00 0.00 0.00 0.00 0.00 0.00 0.00 0.00 0.00 0.00 0.00 0.00 0.00 0.00 0.00 0.00 0.00 0.00 0.00 0.00 0.00 0.00 0.00 0.00 0.00 0.00 0.00 0.00 0.00 0.00 0.00 0.00 0.00 0.00 0.00 0.00 0.00 0.00 0.00 0.00 0.00 0.00 0.00
MSLP
1013.52 1013.86 1014.29 1014.51 1014.91 1015.14 1015.28 1015.37 1015.50 1015.47 1015.39 1015.26 1015.00 1014.64 1014.32 1014.03 1013.77 1013.47 1013.26 1013.03 1012.63 1012.31 1012.10 1011.98 1011.86 1011.79 1011.21 1010.63 1010.57 1010.40 1010.24 1010.10 1009.76 1009.19 1009.13 1008.64 1008.78 1009.15 1009.39 1009.31 1009.27 1009.26 1009.36
1013.28 1013.72 1014.08 1014.36 1014.58 1014.73 1014.95 1015.18 1015.30 1015.25 1015.12 1014.91 1014.58 1014.17 1013.73 1013.32 1013.05 1012.78 1012.47 1012.14 1011.76 1011.26 1010.90 1010.98 1010.99 1010.98 1010.78 1010.61 1010.31 1010.07 1010.14 1010.15 1009.90 1008.91 1008.61 1008.25 1008.40 1008.88 1008.90 1009.00 1008.86 1008.51 1008.72
1013.36 1013.52 1013.77 1014.10 1014.32 1014.53 1014.79 1014.98 1015.02 1014.83 1014.56 1014.25 1013.92 1013.49 1013.05 1012.64 1012.30 1012.04 1011.73 1011.36 1011.03 1010.63 1010.24 1010.10 1010.10 1010.14 1009.83 1009.72 1009.50 1009.16 1009.08 1009.28 1009.44 1008.92 1007.98 1008.17 1007.78 1007.88 1008.02 1008.15 1008.30 1008.28 1008.09
1013.30 1013.53 1013.84 1014.00 1014.20 1014.34 1014.49 1014.53 1014.38 1014.21 1013.92 1013.53 1013.11 1012.66 1012.21 1011.83 1011.57 1011.29 1010.87 1010.61 1010.42 1010.00 1009.74 1009.56 1009.26 1009.20 1009.10 1008.99 1008.81 1008.68 1008.62 1008.66 1008.69 1008.52 1008.02 1007.85 1007.66 1007.80 1008.24 1007.47 1007.15 1007.00 1006.68
1013.52 1013.69 1013.82 1014.03 1014.12 1014.20 1014.09 1013.89 1013.74 1013.55 1013.12 1012.76 1012.31 1011.83 1011.39 1010.99 1010.60 1010.23 1010.20 1010.04 1009.86 1009.54 1009.08 1008.75 1008.38 1008.16 1008.03 1008.08 1008.13 1007.81 1007.93 1007.92 1007.86 1007.64 1007.37 1007.53 1007.36 1007.50 1007.62 1007.09 1007.09 1006.56 1005.96
1013.91 1013.86 1013.86 1013.83 1013.80 1013.73 1013.56 1013.33 1013.05 1012.73 1012.38 1012.05 1011.58 1011.02 1010.92 1010.64 1010.19 1010.33 1010.51 1010.01 1009.56 1009.04 1008.37 1007.88 1007.50 1007.20 1007.00 1007.05 1007.07 1007.09 1007.27 1007.21 1006.99 1006.80 1006.36 1006.40 1006.39 1006.69 1006.91 1006.97 1006.45 1005.64 1004.98
1013.74 1013.66 1013.55 1013.38 1013.24 1013.14 1012.95 1012.70 1012.25 1011.90 1011.64 1011.32 1011.02 1010.87 1010.53 1010.09 1009.80 1009.74 1009.79 1009.73 1009.03 1008.40 1007.99 1007.58 1007.00 1006.21 1005.96 1005.67 1005.68 1005.81 1005.87 1005.87 1006.02 1005.92 1005.54 1005.17 1005.23 1005.43 1005.81 1006.03 1006.12 1005.76 1004.95
1013.61 1013.39 1013.12 1012.88 1012.67 1012.48 1012.41 1012.08 1011.68 1011.44 1011.12 1010.88 1010.66 1010.17 1009.67 1009.37 1009.15 1009.11 1008.97 1008.85 1008.30 1007.71 1007.33 1007.04 1006.73 1006.33 1006.06 1005.79 1005.32 1004.87 1004.41 1004.25 1004.36 1004.52 1004.34 1003.85 1004.08 1004.54 1004.99 1005.01 1005.07 1005.21 1005.03
1013.20 1012.94 1012.73 1012.52 1012.28 1012.14 1011.83 1011.49 1011.30 1011.01 1010.61 1010.34 1010.00 1009.43 1008.94 1008.57 1008.44 1008.34 1008.37 1007.72 1007.07 1006.87 1006.40 1006.05 1005.95 1005.66 1005.02 1005.10 1004.97 1004.20 1003.60 1003.31 1002.89 1002.68 1002.71 1002.75 1003.02 1003.66 1004.18 1004.68 1004.67 1004.94 1004.19
1013.30 1013.13 1012.84 1012.42 1012.15 1011.81 1011.51 1011.19 1011.09 1010.68 1010.28 1009.95 1009.36 1008.86 1008.40 1007.98 1007.68 1007.62 1007.70 1006.91 1006.31 1005.93 1005.46 1004.93 1004.92 1005.17 1004.93 1004.51 1004.20 1003.56 1002.91 1001.90 1001.75 1001.32 1001.59 1002.04 1002.39 1002.71 1003.18 1003.65 1003.91 1003.55 1003.41
1013.51 1013.14 1012.73 1012.34 1011.99 1011.59 1011.16 1010.89 1010.33 1010.25 1009.87 1009.36 1008.69 1008.16 1007.68 1007.33 1006.99 1007.05 1006.92 1006.52 1005.86 1005.55 1005.31 1004.90 1004.66 1004.36 1004.08 1003.83 1003.35 1002.57 1001.72 1001.54 1001.32 1001.10 1000.90 1000.91 1000.94 1001.17 1001.61 1002.02 1002.25 1002.55 1002.39
1013.62 1013.12 1012.56 1012.01 1011.62 1011.21 1010.75 1010.61 1010.33 1009.68 1009.29 1008.76 1008.14 1007.51 1007.05 1006.60 1006.52 1006.41 1006.33 1006.46 1006.51 1006.08 1005.12 1004.24 1003.79 1003.39 1003.03 1002.60 1002.24 1001.37 1001.41 1001.34 1001.13 1000.74 1000.41 1000.16 1000.03 999.89 999.99 1000.59 1001.00 1001.37 1001.52
1013.64 1012.98 1012.37 1011.72 1011.24 1010.78 1010.62 1010.16 1009.71 1009.28 1008.98 1008.32 1007.78 1007.33 1006.74 1006.34 1005.77 1006.08 1005.81 1005.85 1006.07 1005.78 1004.21 1003.40 1003.42 1002.75 1002.18 1001.12 1000.55 1000.43 1000.68 1000.41 1000.05 999.69 999.44 999.24 999.03 998.92 999.09 999.83 1000.01 1000.06 1000.40
1013.98 1013.22 1012.40 1011.71 1011.10 1010.45 1010.12 1009.88 1009.67 1009.31 1009.06 1008.15 1007.52 1006.88 1006.57 1006.23 1005.80 1005.82 1005.50 1005.15 1004.60 1003.97 1003.27 1002.88 1002.74 1002.33 1001.13 999.76 999.49 998.95 999.05 998.90 998.84 998.71 998.68 998.51 998.68 998.68 998.84 999.05 999.17 999.31 999.31
1014.04 1013.18 1012.32 1011.62 1010.77 1009.88 1009.42 1009.00 1009.36 1009.19 1009.09 1008.72 1007.74 1007.41 1006.94 1006.52 1005.99 1005.87 1006.11 1005.50 1004.48 1004.27 1004.97 1003.41 1002.03 1001.26 1000.42 999.04 998.46 997.97 997.73 997.71 997.81 997.89 997.74 997.84 997.85 998.06 998.11 998.17 998.17 998.12 998.64
1013.99 1012.85 1012.05 1011.31 1010.11 1009.57 1009.25 1008.68 1008.42 1008.71 1008.33 1008.10 1007.54 1007.55 1006.90 1006.61 1005.56 1005.21 1005.21 1005.00 1004.76 1004.76 1004.14 1002.29 1001.08 1000.61 1000.17 999.28 998.05 997.55 996.77 996.89 996.96 997.03 996.94 996.90 997.16 997.36 997.55 997.54 997.49 997.72 997.87
1014.22 1013.46 1012.39 1011.03 1010.65 1009.72 1009.09 1008.61 1008.19 1007.60 1007.66 1007.51 1007.18 1006.92 1006.74 1006.36 1005.55 1005.11 1004.78 1004.63 1003.64 1003.93 1002.72 1000.36 1000.42 1000.12 1000.19 999.66 998.76 997.65 996.52 996.22 996.25 996.22 996.23 996.14 996.08 996.07 996.49 996.60 996.98 997.16 997.22
1014.16 1013.32 1012.03 1011.31 1010.37 1009.76 1009.28 1008.55 1008.48 1008.03 1007.70 1007.26 1006.73 1006.49 1006.04 1005.52 1004.91 1004.60 1004.59 1004.10 1002.10 1002.22 1000.79 1000.18 1000.04 999.40 1000.00 999.54 999.13 998.30 997.28 996.63 995.96 995.60 995.52 995.71 995.89 996.16 996.45 996.55 996.73 997.04 997.00
1014.05 1013.08 1012.27 1011.24 1010.54 1010.44 1009.44 1008.47 1008.39 1008.13 1008.02 1007.46 1006.89 1006.33 1006.18 1005.36 1004.41 1004.28 1004.34 1003.77 1001.94 1000.71 1000.59 1000.07 1000.01 999.85 999.72 999.59 999.41 998.95 998.00 997.59 995.94 995.14 995.98 996.12 996.22 996.33 996.38 996.35 996.26 996.95 997.19
1013.87 1013.18 1012.63 1011.69 1011.21 1010.81 1010.13 1009.25 1008.55 1008.61 1008.42 1007.81 1007.50 1007.59 1006.76 1005.36 1004.74 1004.51 1003.88 1003.34 1002.42 1001.62 1001.15 1000.78 999.84 999.91 999.96 999.79 999.42 999.29 998.97 998.38 997.73 997.40 997.13 996.98 996.87 996.91 997.04 997.04 997.07 997.33 997.64
1014.33 1013.86 1013.45 1012.79 1012.21 1011.70 1011.01 1010.45 1009.52 1009.50 1009.16 1008.61 1008.48 1008.46 1007.78 1006.55 1006.00 1005.72 1004.85 1004.00 1003.51 1003.45 1002.49 1001.40 1000.97 1000.36 999.81 999.85 999.83 998.96 998.71 998.96 998.66 998.15 997.70 997.83 997.86 997.86 997.95 997.87 997.85 998.49 998.59
1014.86 1014.39 1013.93 1013.45 1013.07 1012.61 1011.86 1011.01 1010.99 1010.27 1009.97 1009.37 1009.02 1008.69 1008.31 1007.76 1007.43 1007.10 1006.39 1005.83 1004.89 1004.30 1003.44 1002.66 1002.08 1001.68 1001.35 1001.32 1001.17 1000.49 1000.02 999.64 998.68 997.99 997.54 997.39 997.74 997.99 998.71 999.18 999.30 999.31 999.55
1014.84 1014.62 1014.36 1014.08 1013.68 1013.07 1012.79 1012.37 1011.97 1011.65 1010.97 1010.44 1009.98 1009.71 1009.29 1008.80 1008.31 1007.99 1007.47 1007.01 1006.17 1005.49 1004.97 1004.28 1004.12 1004.01 1003.77 1003.10 1002.83 1002.28 1002.08 1001.91 1001.00 998.90 998.11 997.90 997.83 997.52 997.64 997.97 998.42 998.83 999.12
1014.47 1014.33 1014.17 1014.34 1014.31 1013.91 1013.64 1013.36 1012.89 1012.66 1012.14 1011.69 1011.33 1010.93 1010.26 1009.70 1009.23 1008.78 1008.33 1007.91 1007.33 1006.78 1006.34 1005.69 1005.68 1005.61 1005.29 1004.86 1004.51 1004.01 1004.06 1003.75 1002.39 1000.65 999.31 998.49 998.15 998.36 998.18 997.98 998.20 998.38 998.99
1014.50 1014.32 1014.09 1013.88 1013.94 1014.43 1014.37 1014.25 1013.95 1013.69 1013.19 1012.91 1012.47 1012.23 1011.85 1011.29 1010.64 1009.72 1009.36 1008.70 1007.99 1007.47 1007.02 1006.97 1006.64 1006.35 1005.96 1005.97 1005.95 1005.58 1005.12 1004.10 1003.18 1002.39 1000.63 999.07 999.00 998.82 998.85 998.68 998.84 998.95 999.02
1014.79 1014.64 1014.28 1014.18 1014.39 1014.29 1013.61 1013.68 1013.91 1014.10 1013.94 1013.75 1013.48 1013.25 1012.87 1012.39 1011.72 1011.24 1010.43 1009.87 1009.14 1008.66 1008.42 1008.10 1007.79 1007.25 1007.31 1007.00 1007.09 1006.61 1005.90 1004.83 1003.78 1002.61 1001.53 999.71 999.27 999.03 999.22 999.22 999.42 998.90 999.16
Thickness
5778 5773 5768 5764 5759 5755 5750 5747 5742 5740 5737 5734 5733 5732 5732 5732 5731 5731 5730 5730 5731 5733 5735 5733 5733 5735 5739 5744 5745 5746 5747 5748 5744 5755 5758 5766 5765 5764 5766 5768 5770 5772 5772
5773 5766 5761 5756 5752 5747 5742 5738 5734 5730 5728 5725 5723 5723 5722 5722 5722 5721 5722 5723 5724 5726 5730 5728 5727 5728 5728 5732 5735 5735 5735 5737 5736 5745 5751 5755 5757 5757 5761 5761 5765 5771 5770
5763 5759 5754 5748 5743 5738 5732 5728 5724 5720 5718 5716 5713 5712 5712 5712 5712 5712 5713 5714 5715 5718 5721 5719 5720 5720 5722 5723 5727 5731 5734 5734 5732 5737 5747 5748 5754 5758 5757 5760 5761 5765 5769
5754 5749 5742 5736 5731 5726 5722 5718 5714 5710 5707 5706 5705 5704 5702 5703 5702 5701 5703 5704 5705 5708 5710 5710 5712 5712 5714 5715 5718 5721 5724 5724 5725 5727 5735 5738 5742 5748 5745 5752 5758 5767 5771
5743 5736 5729 5724 5719 5714 5710 5707 5702 5697 5695 5693 5692 5692 5692 5690 5691 5691 5689 5690 5692 5694 5699 5701 5704 5706 5709 5710 5709 5715 5715 5715 5717 5721 5728 5728 5733 5735 5737 5748 5748 5759 5769
5725 5720 5717 5713 5707 5701 5698 5693 5688 5685 5681 5678 5677 5676 5673 5673 5674 5669 5667 5673 5677 5680 5686 5691 5695 5697 5701 5701 5703 5706 5707 5708 5711 5714 5725 5726 5732 5733 5736 5737 5746 5755 5758
5715 5711 5706 5702 5696 5690 5686 5680 5677 5673 5668 5663 5661 5657 5656 5656 5656 5653 5653 5658 5664 5669 5672 5676 5682 5690 5693 5697 5700 5700 5701 5706 5708 5713 5718 5728 5731 5738 5738 5735 5739 5746 5755
5704 5701 5697 5691 5685 5680 5673 5668 5665 5659 5654 5650 5645 5644 5644 5644 5643 5642 5643 5648 5653 5658 5661 5664 5667 5672 5675 5678 5684 5690 5699 5705 5707 5711 5717 5732 5735 5736 5734 5738 5739 5743 5750
5695 5691 5686 5680 5674 5668 5664 5659 5653 5647 5644 5639 5636 5636 5635 5637 5636 5635 5635 5642 5648 5649 5654 5658 5658 5661 5667 5666 5668 5679 5689 5696 5708 5714 5719 5727 5730 5729 5729 5728 5729 5729 5740
5682 5677 5673 5669 5664 5660 5655 5650 5643 5639 5635 5632 5632 5632 5631 5632 5633 5629 5629 5637 5642 5645 5648 5652 5651 5649 5651 5656 5661 5669 5676 5697 5701 5709 5713 5715 5717 5722 5723 5724 5729 5731 5739
5669 5665 5662 5658 5654 5650 5646 5641 5638 5631 5628 5627 5628 5628 5628 5628 5630 5625 5625 5631 5635 5637 5636 5638 5640 5639 5642 5647 5654 5665 5680 5686 5690 5696 5703 5709 5714 5719 5723 5729 5733 5735 5738
5655 5652 5650 5650 5647 5643 5639 5633 5627 5626 5622 5621 5623 5625 5625 5628 5626 5625 5623 5619 5618 5621 5626 5632 5636 5636 5637 5644 5650 5664 5668 5672 5678 5685 5693 5700 5706 5714 5723 5728 5732 5735 5741
5641 5642 5642 5642 5640 5636 5629 5627 5623 5620 5614 5614 5616 5616 5619 5621 5626 5620 5620 5616 5612 5615 5627 5634 5632 5636 5640 5650 5656 5660 5662 5669 5676 5682 5690 5698 5707 5714 5720 5721 5728 5735 5738
5627 5630 5633 5632 5631 5630 5626 5620 5613 5609 5604 5605 5609 5612 5613 5616 5618 5615 5617 5618 5619 5623 5629 5632 5632 5634 5642 5657 5659 5666 5667 5671 5675 5681 5687 5696 5699 5703 5708 5715 5718 5723 5727
5619 5622 5624 5624 5626 5627 5623 5620 5611 5604 5597 5592 5598 5600 5603 5606 5608 5607 5603 5609 5614 5616 5608 5621 5632 5636 5644 5653 5661 5666 5669 5671 5675 5681 5687 5691 5695 5699 5705 5712 5718 5723 5718
5611 5617 5619 5620 5625 5622 5617 5616 5610 5601 5597 5592 5591 5590 5597 5597 5604 5605 5604 5605 5606 5605 5615 5628 5633 5633 5635 5646 5655 5662 5671 5673 5676 5680 5685 5691 5694 5698 5701 5707 5714 5715 5716
5601 5602 5608 5615 5611 5612 5612 5610 5607 5607 5599 5595 5594 5592 5590 5594 5601 5603 5605 5605 5612 5609 5625 5643 5634 5633 5632 5637 5645 5656 5668 5675 5677 5680 5684 5691 5698 5703 5703 5706 5707 5710 5714
5594 5595 5604 5605 5609 5607 5606 5607 5600 5598 5596 5597 5598 5597 5600 5601 5605 5606 5605 5609 5635 5627 5640 5639 5635 5637 5629 5631 5637 5645 5653 5665 5675 5681 5685 5688 5691 5693 5694 5697 5700 5701 5705
5585 5591 5594 5599 5600 5594 5600 5603 5598 5595 5591 5592 5594 5598 5598 5602 5609 5609 5607 5619 5632 5639 5637 5638 5636 5634 5630 5629 5632 5635 5642 5647 5658 5670 5675 5679 5682 5684 5687 5691 5697 5692 5692
5577 5578 5580 5586 5585 5584 5587 5592 5593 5587 5585 5585 5586 5583 5590 5603 5609 5613 5617 5620 5626 5630 5631 5630 5638 5634 5628 5626 5628 5632 5634 5639 5645 5650 5654 5663 5667 5671 5673 5676 5679 5679 5677
5563 5563 5561 5564 5567 5568 5572 5572 5581 5576 5576 5578 5576 5575 5577 5591 5593 5595 5604 5611 5612 5608 5615 5624 5626 5630 5630 5628 5627 5635 5636 5634 5636 5641 5642 5648 5653 5655 5657 5663 5660 5657 5658
5548 5548 5548 5550 5551 5551 5557 5564 5561 5566 5566 5569 5570 5571 5569 5576 5577 5579 5585 5589 5596 5600 5606 5611 5615 5618 5619 5617 5616 5621 5625 5627 5637 5643 5646 5650 5648 5649 5645 5642 5642 5644 5643
5540 5537 5535 5535 5537 5540 5541 5544 5546 5547 5552 5555 5558 5558 5559 5562 5566 5568 5572 5576 5583 5588 5591 5596 5596 5595 5596 5601 5602 5607 5608 5610 5617 5635 5640 5643 5644 5648 5649 5647 5644 5642 5642
5535 5531 5528 5521 5518 5521 5523 5524 5529 5531 5535 5539 5540 5542 5547 5550 5552 5556 5560 5563 5568 5572 5575 5581 5580 5578 5580 5583 5584 5587 5588 5592 5603 5620 5629 5636 5639 5637 5640 5642 5641 5641 5636
5527 5521 5518 5516 5512 5504 5503 5504 5509 5512 5519 5522 5526 5527 5527 5531 5537 5544 5547 5553 5559 5563 5566 5566 5568 5570 5572 5571 5570 5573 5578 5586 5593 5599 5617 5629 5627 5627 5629 5632 5630 5629 5630
5519 5512 5508 5503 5495 5492 5503 5504 5502 5502 5505 5508 5512 5513 5515 5518 5523 5527 5534 5539 5545 5549 5550 5551 5553 5557 5556 5558 5556 5561 5568 5576 5583 5592 5601 5616 5617 5619 5621 5621 5619 5624 5622